Regional Weather Roundup
Issued by NWS

Home | Current Version | Previous Version | Text Only | Print | Product List | Glossary On
Versions: 1 2 3 4 5 6 7 8 9 10 11 12 13 14 15 16 17 18 19 20 21 22 23 24 25 26 27 28 29 30 31 32 33 34 35 36 37 38 39 40 41 42 43 44 45 46 47 48 49 50
000
ASUS44 KFWD 171710
RWRTX
NORTH TEXAS HOURLY WEATHER ROUNDUP
NATIONAL WEATHER SERVICE FORT WORTH TX
1200 PM CDT TUE OCT 17 2017

NOTE: "FAIR" INDICATES FEW OR NO CLOUDS BELOW 12,000 FEET WITH NO
SIGNIFICANT WEATHER AND/OR OBSTRUCTIONS TO VISIBILITY.

TXZ118-119-171800-
DALLAS/FORT WORTH METROPLEX

CITY           SKY/WX    TMP DP  RH WIND       PRES   REMARKS
DFW AIRPORT    SUNNY     69  41  36 SE8       30.30F
DALLAS LOVE    SUNNY     67  41  38 S8        30.31F
FTW MEACHAM    SUNNY     69  43  38 SE7       30.30F
DAL-EXECUTIVE  SUNNY     67  43  41 VRB6      30.31F
FTW-ALLIANCE   SUNNY     68  42  38 SE12      30.30F
FTW-SPINKS     SUNNY     70  41  35 S5        30.32F
ARLINGTON      SUNNY     67  42  40 E9        30.31F
GRAND PRAIRIE  SUNNY     66  39  37 E6        30.33F
ADDISON        SUNNY     66  39  37 SE6       30.31F
MESQUITE       SUNNY     68  37  32 SE8       30.32F
LANCASTER      SUNNY     66  40  38 E6        30.33S
$$

TXZ091>094-102>105-117-120-121-131>134-171800-
NORTH CENTRAL TEXAS

CITY           SKY/WX    TMP DP  RH WIND       PRES   REMARKS
SHRMAN/DENISON SUNNY     67  42  40 SE10      30.31F
GAINESVILLE    SUNNY     67  42  40 S13       30.31F
BOWIE          SUNNY     67  42  40 S12G17    30.29F
BRIDGEPORT     SUNNY     69  42  37 S9        30.31F
DECATUR        SUNNY     66  42  40 SE9       30.28F
DENTON         SUNNY     68  43  40 S9        30.30F
MCKINNEY       SUNNY     67  43  41 SE10      30.31F
BONHAM         SUNNY     65  39  38 SE7       30.32F
GREENVILLE     SUNNY     70  37  30 CALM      30.32F
ROCKWALL       SUNNY     67  41  39 S9        30.32F
TERRELL        SUNNY     67  37  33 SE7       30.32F
WAXAHACHIE     SUNNY     67  43  42 E5        30.33S
CLEBURNE       SUNNY     66  41  39 VRB7      30.32F
GRANBURY         N/A     69  43  39 E9        30.32F HAZE
$$

TXZ083>090-098>101-113>116-127>130-139>142-154-155-171800-
WESTERN NORTH TEXAS

CITY           SKY/WX    TMP DP  RH WIND       PRES   REMARKS
WICHITA FALLS  SUNNY     69  44  40 S13       30.26F
WF-KICKAPOO    SUNNY     68  43  39 S13G21    30.29F
VERNON         SUNNY     70  32  24 S12G18    30.25F
ABILENE        SUNNY     68  40  35 S14       30.29F
ABILENE-DYESS  SUNNY     70  42  36 S14       30.28F
GRAHAM           N/A     70  42  36 SE6       30.27F
BRECKENRIDGE   SUNNY     73  37  26 S9        30.28F HAZE
CISCO          SUNNY     68  37  32 S12       30.31F
EASTLAND       SUNNY     68  40  35 S8        30.29F
RANGER         SUNNY     67  41  38 S7        30.30F
MINERAL WELLS  SUNNY     69  41  36 S9        30.28F
STEPHENVILLE   SUNNY     68  41  37 S5        30.33F
COMANCHE       SUNNY     70  42  36 CALM      30.31S
BROWNWOOD      SUNNY     68  37  32 SW3       30.31F
COLEMAN        SUNNY     69  36  30 S8        30.31S
$$

TXZ143>147-156>162-174-175-171800-
CENTRAL TEXAS

CITY           SKY/WX    TMP DP  RH WIND       PRES   REMARKS
WACO           SUNNY     69  40  34 CALM      30.31F
WACO-TSTC      SUNNY     68  39  34 CALM      30.31F
WACO-MCGREGOR  SUNNY     68  41  37 S5        30.31F
HILLSBORO      SUNNY     67  43  40 E5        30.31F
CORSICANA      SUNNY     68  40  35 VRB5      30.32F
MEXIA          SUNNY     67  39  35 E5        30.30F
HEARNE         SUNNY     68  42  38 E5        30.31F
CAMERON        SUNNY     68  43  40 E6        30.30F
TEMPLE         SUNNY     68  41  37 VRB5      30.31F
KILLEEN        SUNNY     66  42  40 NE3       30.30F
KILLEEN-SKYLRK SUNNY     67  43  41 VRB6      30.31F
FORT HOOD      SUNNY     67  42  41 SE3       30.27F
GATESVILLE     SUNNY     66  43  42 CALM      30.32F
HAMILTON       SUNNY     68  42  38 S6        30.31F
LAMPASAS       SUNNY     68  45  43 CALM      30.29F
$$

TXZ095>097-106>112-122>126-135>138-148>153-164>167-171800-
EAST TEXAS

CITY           SKY/WX    TMP DP  RH WIND       PRES   REMARKS
PARIS          SUNNY     66  40  38 SE9       30.33S
SULPHUR SPRNGS SUNNY     67  38  34 SE3       30.34F
MOUNT PLEASANT SUNNY     65  42  43 E5        30.33F
GILMER         SUNNY     65  40  40 NE6       30.32F
MINEOLA        SUNNY     66  41  39 NE5       30.31F
TYLER          SUNNY     66  38  35 CALM      30.31F
LONGVIEW       SUNNY     68  43  40 VRB7      30.30F
MARSHALL       SUNNY     66  39  37 E3        30.33F
ATHENS         SUNNY     64  37  36 E5        30.30F
PALESTINE      SUNNY     65  44  45 NE5       30.33S
JACKSONVILLE   SUNNY     65  42  43 CALM      30.33F
HENDERSON      SUNNY     67  40  36 N5        30.31F
CENTER         SUNNY     69  47  44 CALM      30.31S
NACOGDOCHES    SUNNY     67  43  41 E5        30.30F
LUFKIN         SUNNY     66  46  48 CALM      30.29F
$$

SUPPLEMENTAL OBSERVATIONS (NWS FORT WORTH AREA)

CITY           SKY/WX    TMP DP  RH WIND       PRES   REMARKS
CADDO GRASSLND   N/A     66  41  39 S7          N/A
PAT MAYSE LAKE   N/A     63  34  34 SE9         N/A
LBJ GRASSLAND    N/A     70  43  37 SE9         N/A
POSSUM KINGDOM   N/A     72  39  30 S10         N/A
GRANBURY         N/A     70  43  37 SE8         N/A
MCGREGOR         N/A     70  39  32 SE3         N/A
TEMPLE           N/A     70  41  35 E5          N/A
$$

SUPPLEMENTAL OBSERVATIONS (NWS NORMAN AREA)

CITY           SKY/WX    TMP DP  RH WIND       PRES   REMARKS
GOODLETT         N/A     72  33  23 S18       30.22F
ODELL            N/A     70  38  30 S15       30.25F
CROWELL          N/A     71  36  27 S17       30.25F
KNOX CITY        N/A     72  35  25 S12       30.27S
SEYMOUR          N/A     71  38  29 S14       30.26F
MILLERS CREEK    N/A     72  41  33 S12         N/A
$$

SUPPLEMENTAL OBSERVATIONS (NWS SAN ANGELO AREA)

CITY           SKY/WX    TMP DP  RH WIND       PRES   REMARKS
WEINERT          N/A     72  37  28 S13       30.27F
HASKELL          N/A     71  32  23 S12G17    30.27S
THROCKMORTON     N/A     72  41  32 S12       30.28F
STAMFORD         N/A     72  37  28 S14       30.28F
CLYDE            N/A     69  40  34 S9        30.30F
HAMBY            N/A     72  37  28 S14         N/A
$$

SUPPLEMENTAL OBSERVATIONS (NWS SHREVEPORT AREA)

CITY           SKY/WX    TMP DP  RH WIND       PRES   REMARKS
CLARKSVILLE      N/A     66  37  34 SE8         N/A
TEXARKANA        N/A     70  43  37 NE5         N/A
LINDEN           N/A     70  41  35 NE3         N/A
GILMER           N/A     66  41  39 SE5         N/A
HENDERSON        N/A     70  39  32 NE5         N/A
LUFKIN           N/A     68  45  42 MISG        N/A
$$

SUPPLEMENTAL OBSERVATIONS ARE A COLLECTION OF AUTOMATED INSTRUMENTS
THAT ARE MAINTAINED BY A VARIETY OF FEDERAL AND STATE AGENCIES.
CERTAIN ELEMENTS...SUCH AS HUMIDITY VALUES AND SUSTAINED WIND
SPEEDS...MAY BE APPROXIMATED.





USA.gov is the U.S. government's official web portal to all federal, state and local government web resources and services.